Springfield, VT

11:03 AM EDT on April 25, 2018 (GMT -0400)
Hartness State

Weather History for KVSF - July, 2012

Change the Weather History Date:

Tuesday, July 31, 2012

  Actual Average Record
Temperature  
Mean Temperature 74 °F 69 °F  
Max Temperature 86 °F 81 °F 91 °F (1999)
Min Temperature 61 °F 57 °F 45 °F (2010)
Degree Days  
Heating Degree Days 0 1  
Month to date heating degree days 17  
Since 1 June heating degree days 113  
Since 1 July heating degree days 17  
Cooling Degree Days 9 4  
Month to date cooling degree days 248 139  
Year to date cooling degree days 398 215  
Since 1 June cooling degree days 337 203  
Growing Degree Days 24 (Base 50)    
Moisture  
Dew Point 59 °F    
Average Humidity 63    
Maximum Humidity 93    
Minimum Humidity 32    
Precipitation  
Precipitation 0.00 in 0.15 in 2.34 in (2000)
Month to date precipitation 2.92 4.43  
Year to date precipitation 19.35 24.59  
Sea Level Pressure  
Sea Level Pressure 30.05 in    
Wind  
Wind Speed 4 mph (South)    
Max Wind Speed 15 mph    
Max Gust Speed 20 mph    
Visibility 10 miles    
Events      
T = Trace of Precipitation, MM = Missing Value Source: NWS Daily Summary

Daily Weather History Graph

Daily Weather History Graph

Search for Another Location

Airport or City:

Astronomy

Jul. 31, 2012 Rise Set
Actual Time 5:39 AM EDT 8:12 PM EDT
Civil Twilight 5:06 AM EDT 8:45 PM EDT
Nautical Twilight 4:26 AM EDT 9:25 PM EDT
Astronomical Twilight 3:39 AM EDT 10:11 PM EDT
Moon 6:59 PM EDT (7/31) 3:56 AM EDT (7/31)
Length of Visible Light 15h 38m
Length of Day
14h 33m
Waxing Gibbous, 97% of the Moon is Illuminated
Jul 31
Waxing Gibbous
Aug 1
Full
Aug 9
Last Quarter
Aug 17
New
Aug 24
First Quarter

Hourly Weather History & Observations

Time (EDT) Temp. Heat Index Dew Point Humidity Pressure Visibility Wind Dir Wind Speed Gust Speed Precip Events Conditions
12:54 AM 64.0 °F - 61.0 °F 90% 30.10 in 9.0 mi Calm Calm - N/A   Clear
2:54 AM 63.0 °F - 60.1 °F 90% 30.10 in 7.0 mi Calm Calm - N/A   Clear
3:52 AM 62.6 °F - 60.8 °F 94% 30.10 in 9.0 mi Calm Calm - N/A   Mostly Cloudy
3:54 AM 63.0 °F - 60.1 °F 90% 30.10 in 9.0 mi Calm Calm - N/A   Mostly Cloudy
4:22 AM 62.6 °F - 60.8 °F 94% 30.10 in 10.0 mi Calm Calm - N/A   Overcast
4:54 AM 64.0 °F - 62.1 °F 93% 30.10 in 10.0 mi Calm Calm - N/A   Overcast
5:54 AM 66.0 °F - 62.1 °F 87% 30.10 in 10.0 mi Calm Calm - N/A   Overcast
6:54 AM 66.0 °F - 62.1 °F 87% 30.10 in 10.0 mi South 3.5 mph - N/A   Overcast
7:54 AM 66.0 °F - 62.1 °F 87% 30.10 in 10.0 mi SSW 4.6 mph - N/A   Overcast
8:54 AM 68.0 °F - 61.0 °F 78% 30.09 in 10.0 mi Calm Calm - N/A   Overcast
9:54 AM 72.0 °F - 60.1 °F 66% 30.09 in 10.0 mi NNW 3.5 mph - N/A   Scattered Clouds
10:54 AM 75.0 °F - 60.1 °F 60% 30.08 in 10.0 mi South 3.5 mph - N/A   Clear
11:54 AM 80.1 °F 80.6 °F 57.9 °F 47% 30.05 in 10.0 mi Variable 5.8 mph - N/A   Clear
12:54 PM 82.0 °F 81.7 °F 57.0 °F 42% 30.04 in 10.0 mi Variable 6.9 mph - N/A   Clear
1:54 PM 82.9 °F 82.1 °F 55.9 °F 39% 30.01 in 10.0 mi SSW 6.9 mph - N/A   Clear
2:54 PM 86.0 °F 84.2 °F 54.0 °F 33% 29.99 in 10.0 mi SSE 12.7 mph 18.4 mph N/A   Partly Cloudy
3:54 PM 84.0 °F 82.6 °F 54.0 °F 35% 29.96 in 10.0 mi South 9.2 mph - N/A   Clear
4:54 PM 84.9 °F - 52.0 °F 32% 29.94 in 10.0 mi SE 10.4 mph 19.6 mph N/A   Clear
5:54 PM 81.0 °F 80.5 °F 54.0 °F 39% 29.94 in 10.0 mi South 8.1 mph - N/A   Clear
11:54 PM 63.0 °F - 59.0 °F 87% 29.95 in 10.0 mi Calm Calm - N/A   Clear